Hourly Weather Bolshie Malamasy

Today, 15 June, Tuesday

Time Temperature Precipitation Wind Pressure Humidity
00:00 +18°C° 0 mm 1 mps 755 mmHg 88%
01:00 +18°C° 0 mm 1 mps 755 mmHg 89%
02:00 +18°C° 0 mm 1 mps 755 mmHg 89%
03:00 +16°C° 0 mm 0 mps 755 mmHg 89%
04:00 +17°C° 0 mm 0 mps 756 mmHg 86%
05:00 +18°C° 0 mm 0 mps 756 mmHg 83%
06:00 +19°C° 0 mm 0 mps 756 mmHg 80%
07:00 +21°C° 0.1 mm 0 mps 756 mmHg 75%
08:00 +24°C° 0.1 mm 1 mps 756 mmHg 69%
09:00 +26°C° 0 mm 1 mps 756 mmHg 64%
10:00 +25°C° 0.4 mm 2 mps 756 mmHg 69%
11:00 +24°C° 0.4 mm 2 mps 756 mmHg 75%
12:00 +22°C° 0.4 mm 3 mps 755 mmHg 80%
13:00 +22°C° 0.2 mm 3 mps 755 mmHg 81%
14:00 +21°C° 0.2 mm 2 mps 755 mmHg 83%
15:00 +21°C° 0.2 mm 2 mps 755 mmHg 84%
16:00 +21°C° 0 mm 2 mps 755 mmHg 83%
17:00 +23°C° 0 mm 2 mps 754 mmHg 82%
18:00 +23°C° 0 mm 2 mps 754 mmHg 81%
19:00 +21°C° 0.3 mm 2 mps 754 mmHg 84%
20:00 +20°C° 0.3 mm 2 mps 754 mmHg 87%
21:00 +20°C° 0.3 mm 2 mps 754 mmHg 89%
22:00 +20°C° 0.1 mm 1 mps 754 mmHg 90%
23:00 +20°C° 0.1 mm 1 mps 753 mmHg 91%

Tomorrow, 16 June, Wednesday

Time Temperature Precipitation Wind Pressure Humidity
00:00 +19°C° 0.1 mm 1 mps 753 mmHg 91%
01:00 +19°C° 0 mm 1 mps 752 mmHg 91%
02:00 +19°C° 0 mm 1 mps 752 mmHg 90%
03:00 +19°C° 0 mm 1 mps 752 mmHg 90%
04:00 +20°C° 0 mm 1 mps 752 mmHg 88%
05:00 +21°C° 0 mm 1 mps 752 mmHg 85%
06:00 +22°C° 0 mm 1 mps 751 mmHg 83%
07:00 +23°C° 0 mm 2 mps 751 mmHg 76%
08:00 +25°C° 0 mm 2 mps 751 mmHg 69%
09:00 +27°C° 0 mm 3 mps 750 mmHg 62%
10:00 +28°C° 0 mm 3 mps 750 mmHg 57%
11:00 +29°C° 0 mm 3 mps 750 mmHg 53%
12:00 +30°C° 0 mm 3 mps 749 mmHg 48%
13:00 +30°C° 0 mm 2 mps 749 mmHg 48%
14:00 +30°C° 0 mm 2 mps 749 mmHg 48%
15:00 +30°C° 0 mm 1 mps 749 mmHg 48%
16:00 +28°C° 2.2 mm 3 mps 749 mmHg 61%
17:00 +24°C° 2.2 mm 6 mps 749 mmHg 75%
18:00 +21°C° 2.2 mm 8 mps 750 mmHg 88%
19:00 +20°C° 0.8 mm 7 mps 750 mmHg 90%
20:00 +19°C° 0.8 mm 5 mps 751 mmHg 92%
21:00 +18°C° 0.8 mm 4 mps 751 mmHg 94%
22:00 +17°C° 0 mm 4 mps 752 mmHg 95%
23:00 +17°C° 0 mm 3 mps 753 mmHg 95%

Day after tomorrow, 17 June, Thursday

Time Temperature Precipitation Wind Pressure Humidity
00:00 +16°C° 0 mm 3 mps 753 mmHg 95%
01:00 +14°C° 0 mm 3 mps 754 mmHg 96%
02:00 +14°C° 0 mm 3 mps 755 mmHg 96%
03:00 +13°C° 0 mm 3 mps 755 mmHg 96%
04:00 +14°C° 0 mm 2 mps 756 mmHg 92%
05:00 +15°C° 0 mm 2 mps 756 mmHg 88%
06:00 +16°C° 0 mm 2 mps 757 mmHg 85%
07:00 +17°C° 0 mm 2 mps 757 mmHg 76%
08:00 +18°C° 0 mm 2 mps 757 mmHg 67%
09:00 +19°C° 0 mm 3 mps 757 mmHg 59%
10:00 +21°C° 0 mm 3 mps 757 mmHg 52%
11:00 +22°C° 0 mm 3 mps 757 mmHg 46%
12:00 +23°C° 0 mm 4 mps 757 mmHg 40%
13:00 +23°C° 0 mm 4 mps 757 mmHg 41%
14:00 +25°C° 0 mm 4 mps 758 mmHg 41%
15:00 +25°C° 0 mm 4 mps 758 mmHg 42%
16:00 +23°C° 0 mm 4 mps 758 mmHg 47%
17:00 +22°C° 0 mm 3 mps 758 mmHg 53%
18:00 +21°C° 0 mm 3 mps 758 mmHg 58%
19:00 +19°C° 0 mm 3 mps 759 mmHg 62%
20:00 +18°C° 0 mm 2 mps 759 mmHg 65%
21:00 +16°C° 0 mm 2 mps 760 mmHg 69%
22:00 +16°C° 0 mm 2 mps 760 mmHg 70%
23:00 +16°C° 0 mm 2 mps 760 mmHg 71%

18 June, Friday

Time Temperature Precipitation Wind Pressure Humidity
00:00 +15°C° 0 mm 2 mps 761 mmHg 72%
01:00 +14°C° 0 mm 2 mps 761 mmHg 74%
02:00 +13°C° 0 mm 2 mps 762 mmHg 76%
03:00 +12°C° 0 mm 2 mps 762 mmHg 79%
04:00 +13°C° 0 mm 2 mps 762 mmHg 74%
05:00 +14°C° 0 mm 1 mps 763 mmHg 70%
06:00 +15°C° 0 mm 1 mps 763 mmHg 66%
07:00 +17°C° 0 mm 2 mps 763 mmHg 61%
08:00 +18°C° 0 mm 2 mps 764 mmHg 55%
09:00 +20°C° 0 mm 2 mps 764 mmHg 49%
10:00 +20°C° 0 mm 2 mps 764 mmHg 46%
11:00 +21°C° 0 mm 2 mps 764 mmHg 42%
12:00 +23°C° 0 mm 2 mps 764 mmHg 39%
13:00 +24°C° 0 mm 2 mps 764 mmHg 38%
14:00 +24°C° 0 mm 2 mps 763 mmHg 38%
15:00 +24°C° 0 mm 1 mps 763 mmHg 37%
16:00 +24°C° 0 mm 1 mps 763 mmHg 43%
17:00 +24°C° 0 mm 1 mps 763 mmHg 50%
18:00 +24°C° 0 mm 1 mps 763 mmHg 56%
19:00 +22°C° 0 mm 1 mps 763 mmHg 60%
20:00 +20°C° 0 mm 1 mps 763 mmHg 64%
21:00 +17°C° 0 mm 2 mps 763 mmHg 67%
22:00 +16°C° 0 mm 2 mps 764 mmHg 72%
23:00 +16°C° 0 mm 2 mps 764 mmHg 76%

19 June, Saturday

Time Temperature Precipitation Wind Pressure Humidity
00:00 +15°C° 0 mm 2 mps 764 mmHg 80%
01:00 +15°C° 0 mm 2 mps 764 mmHg 83%
02:00 +15°C° 0 mm 2 mps 764 mmHg 87%
03:00 +13°C° 0 mm 3 mps 763 mmHg 90%
04:00 +16°C° 0 mm 3 mps 764 mmHg 86%
05:00 +17°C° 0 mm 3 mps 764 mmHg 82%
06:00 +19°C° 0 mm 4 mps 764 mmHg 78%
07:00 +20°C° 0 mm 4 mps 763 mmHg 72%
08:00 +22°C° 0 mm 5 mps 763 mmHg 67%
09:00 +25°C° 0 mm 5 mps 763 mmHg 62%
10:00 +26°C° 0 mm 5 mps 762 mmHg 60%
11:00 +27°C° 0 mm 6 mps 762 mmHg 58%
12:00 +28°C° 0 mm 6 mps 761 mmHg 56%
13:00 +28°C° 0 mm 6 mps 761 mmHg 56%
14:00 +29°C° 0 mm 6 mps 761 mmHg 57%
15:00 +29°C° 0 mm 7 mps 760 mmHg 57%
16:00 +28°C° 0 mm 6 mps 760 mmHg 61%
17:00 +27°C° 0 mm 6 mps 760 mmHg 65%
18:00 +27°C° 0 mm 6 mps 760 mmHg 68%
19:00 +25°C° 0 mm 5 mps 760 mmHg 72%
20:00 +23°C° 0 mm 5 mps 760 mmHg 76%
21:00 +22°C° 0 mm 4 mps 760 mmHg 80%
22:00 +21°C° 0 mm 4 mps 760 mmHg 82%
23:00 +20°C° 0 mm 4 mps 760 mmHg 85%

20 June, Sunday

Time Temperature Precipitation Wind Pressure Humidity
00:00 +19°C° 0 mm 3 mps 760 mmHg 87%
01:00 +19°C° 0 mm 3 mps 761 mmHg 89%
02:00 +18°C° 0 mm 3 mps 761 mmHg 91%
03:00 +18°C° 0 mm 2 mps 761 mmHg 92%
04:00 +19°C° 0 mm 2 mps 761 mmHg 88%
05:00 +20°C° 0 mm 2 mps 761 mmHg 84%
06:00 +21°C° 0 mm 3 mps 761 mmHg 80%
07:00 +24°C° 0 mm 3 mps 761 mmHg 74%
08:00 +25°C° 0 mm 3 mps 761 mmHg 68%
09:00 +27°C° 0 mm 3 mps 761 mmHg 62%
10:00 +28°C° 0 mm 3 mps 761 mmHg 59%
11:00 +29°C° 0 mm 3 mps 761 mmHg 56%
12:00 +29°C° 0 mm 3 mps 761 mmHg 53%
13:00 +30°C° 0 mm 3 mps 761 mmHg 52%
14:00 +30°C° 0 mm 3 mps 761 mmHg 51%
15:00 +30°C° 0 mm 3 mps 760 mmHg 50%
16:00 +29°C° 0.2 mm 3 mps 760 mmHg 57%
17:00 +28°C° 0.2 mm 3 mps 760 mmHg 64%
18:00 +27°C° 0.2 mm 2 mps 760 mmHg 71%
19:00 +25°C° 0.4 mm 2 mps 760 mmHg 77%
20:00 +24°C° 0.4 mm 2 mps 760 mmHg 82%
21:00 +22°C° 0.4 mm 1 mps 760 mmHg 88%
22:00 +22°C° 0.2 mm 1 mps 760 mmHg 89%
23:00 +21°C° 0.2 mm 1 mps 760 mmHg 90%
Show more